Kamloops Airport
CYKA : now visible

Airfield :











YOU CAN JOIN US ON...

 
LOGIN :

Register | Disclaimer

   EN    FR    IT 

 









Legend :    VFR   Marginal VFR   IFR   Intensive IFR   Very Intensive IFR
Visi :
Ceiling :
>= 8 km
>= 3000ft
5 to 8 km
1000 to 3000 ft
1500m to 5 km
500 to 1000 ft
800 to 1500m
200 to 500 ft
< 800m
< 200 ft
Symbols :   Thunderstorms  Fog  Heavy snow  Heavy precipitations  Wind > 20 kt






- Airport Elevation : 1133 ft
- IATA code : YKA


CYKA - Kamloops

CURRENT METAR :
  • 081400Z 11006KT 40SM SCT160 M03/M06 A3015 RMK AC3 SLP227

EXPIRED METARs :
  • 081300Z 11003KT 070V160 40SM BKN180 M02/M06 A3015 RMK AC6 SLP225
  • 081200Z VRB02KT 40SM SCT220 M03/M07 A3014 RMK CI3 SLP221

TAF TAF CYKA
Valid from the 08 at 13:00 until the 09 at 01:00 UTC


081239Z 0813/0901 VRB03KT P6SM SCT200
BECMG 0819/0821 10008KT RMK NXT FCST BY 081900Z
CZVR FIR / North America



MET'MAP, your aeronautical weather chart ! - Copyright ORBIFLY December 2007 - Disclaimer

ORBIFLY MET'MAP TEAM :

Programming & Development : Alexandra Zaïnal
Concept & original design : Baudouin d'Aumeries
Assistance for programming : Marc-Olivier Méhu
Technical & hardware support : Manuel Goepfert

Contact : metmap@orbifly.com




SOURCES & CREDITS :

   NOAA       Earth
Advisory